[[{"header":{"parameterUnit":"m.s-1","parameterCategory":1,"la1":30.2991,"la2":30.254,"lo1":-89.0895,"lo2":-89.0444,"dy":0.0017,"dx":0.0017,"nx":28,"ny":28,"refTime":"2023-10-08T09:00:00:Z","depth":0,"parameterNumber":2,"parameterNumberName":"U-component_of_WINDS"},"data":[0,0,0,0,0,0,0,0,0,0,0,0,0,0,0,0,0,0,0,0,0,0,0,0,0,0,0,0,0,0,0,0,0,0,0,0,0,0,0,0,0,0,0,0,0,0,0,0,0,0,0,0,0,0,0,0,0,0,3.7471,3.7471,0,3.7489,3.749,3.749,3.7398,3.7395,3.7393,3.739,3.7409,3.7412,3.7415,0,0,0,0,0,0,0,0,0,0,0,0,0,3.7354,3.7357,3.7471,3.7471,3.7472,3.7489,3.749,3.749,3.7398,3.7395,3.7392,3.7389,3.7408,3.7411,3.7415,0,0,0,0,0,0,0,0,0,0,0,0,0,3.7392,3.7358,3.7471,3.7428,3.7424,3.7489,3.749,3.749,3.7399,3.7395,3.7391,3.7387,3.7407,3.7411,3.7416,3.7523,0,0,3.7429,3.7431,0,0,0,0,0,0,0,0,3.739,3.7396,3.7434,3.7431,3.7427,3.7437,3.7455,3.7501,3.74,3.7409,3.739,3.7385,3.7422,3.7425,3.7437,3.7524,3.7524,3.743,3.7432,3.7434,3.7435,0,0,0,0,0,0,0,3.7387,3.7395,3.7478,3.7435,3.7431,3.7407,3.7408,3.7463,3.7437,3.7408,3.7401,3.7404,3.7419,3.7433,3.7437,3.7525,3.7429,3.7433,3.7436,3.7438,3.7693,3.7697,0,0,0,0,0,0,3.7391,3.7393,3.7478,3.7479,3.7398,3.7412,3.7413,3.7438,3.7436,3.7432,3.7408,3.74,3.7427,3.7431,3.7437,3.7557,3.7434,3.7438,3.7441,3.7689,3.7694,3.7699,0,0,0,0,0,0,3.7389,3.7399,3.7477,3.7434,3.7442,3.7418,3.7447,3.7441,3.7454,3.7437,3.7431,3.7427,3.7424,3.7431,3.75,3.7556,3.744,3.7444,3.7684,3.7691,3.7697,3.7801,0,0,0,0,0,0,3.7386,3.7399,3.744,3.7436,3.7445,3.7542,3.7451,3.7444,3.7462,3.7452,3.7453,3.7449,3.7421,3.7494,3.7505,3.756,3.7448,3.7679,3.7687,3.7695,3.7792,3.781,3.7825,0,0,0,0,0,3.7382,3.7471,3.7443,3.7454,3.7497,3.7545,3.755,3.7516,3.7467,3.7507,3.7495,3.7449,3.755,3.7502,3.7513,3.7571,3.7676,3.7685,3.7694,3.7785,3.7807,3.7825,0,0,0,0,0,0,3.7484,3.747,3.7439,3.7529,3.7539,3.753,3.758,3.7541,3.7566,3.7555,3.7512,3.7513,3.7589,3.7588,3.7536,3.7671,3.7604,3.7616,3.7669,3.7689,3.7705,3.7702,3.7452,0,0,0,0,0,3.7517,3.7558,3.7543,3.7624,3.7631,3.7605,3.7625,3.7597,3.7606,3.7609,3.7603,3.7612,3.7645,3.7668,3.7698,3.7793,3.7789,3.7838,3.7854,3.7868,3.7877,3.7921,3.7941,3.7729,3.7729,3.7729,0,0,3.7586,3.7583,3.7612,3.7644,3.7649,3.769,3.7609,3.7658,3.7687,3.7617,3.768,3.7676,3.7684,3.7765,3.7801,3.7766,3.7935,3.7879,3.789,3.7892,3.7933,3.7953,3.7971,3.7735,3.7734,3.7733,0,0,3.773,3.7735,3.7799,3.7804,3.7811,3.7792,3.7808,3.7804,3.7797,3.7861,3.7807,3.7842,3.7902,3.7907,3.7918,3.806,3.8017,3.8072,3.8156,3.8199,3.8216,3.823,3.8275,3.8293,3.8082,3.8083,3.8083,0,3.7814,3.7875,3.7838,3.7888,3.7902,3.7839,3.7902,3.791,3.7927,3.7937,3.7898,3.7967,3.7969,3.8047,3.8082,3.8095,3.8108,3.807,3.8216,3.8231,3.8243,3.8286,3.8304,3.8089,3.8088,3.8087,3.8087,0,3.7975,3.8018,3.8069,3.8084,3.8104,3.8162,3.8131,3.8156,3.8126,3.8111,3.8174,3.8173,3.8198,3.8216,3.819,3.829,3.8267,3.8224,3.8154,3.827,3.8309,3.8326,3.8098,3.8095,3.8093,3.8092,0,0,3.8185,3.8175,3.8194,3.8197,3.8199,3.823,3.8283,3.8307,3.8326,3.834,3.838,3.843,3.8388,3.84,3.8373,3.8412,3.8518,3.8363,3.8362,3.8387,3.8622,3.8651,3.8671,3.8491,3.8494,3.8496,3.8619,0,3.8322,3.841,3.8376,3.8466,3.8502,3.8441,3.8486,3.8491,3.8478,3.8506,3.8491,3.8525,3.847,3.8476,3.8512,3.8498,3.8564,3.8489,3.8524,3.8526,3.8519,3.8692,3.8725,3.8841,3.8635,3.8638,3.864,0,3.8493,3.851,3.8603,3.8592,3.8606,3.8648,3.8663,3.8692,3.8695,3.8682,3.8694,3.8657,3.8705,3.8639,3.8702,3.8652,3.8665,3.866,3.8663,3.8662,3.8587,3.869,3.8878,3.8893,3.8665,3.8663,3.8661,0,3.8629,3.8676,3.8735,3.8741,3.8732,3.8761,3.8759,3.8758,3.8773,3.8788,3.8796,3.8817,3.8828,3.8844,3.8813,3.8768,3.8879,3.8811,3.8866,3.8867,3.8889,3.8887,3.9076,3.8906,3.8906,3.8906,3.8905,0,3.8783,3.8841,3.8795,3.8832,3.8894,3.8854,3.8916,3.8907,3.8906,3.8937,3.8889,3.892,3.8879,3.8905,3.8882,3.8935,3.8942,3.893,3.8922,3.8932,3.8932,3.8936,3.8925,3.891,3.8909,3.8908,3.8908,0,3.8944,3.8917,3.8977,3.8962,3.8959,3.9005,3.8992,3.9024,3.9006,3.9047,3.9054,3.9027,3.9055,3.9026,3.9054,3.9038,3.9107,3.9091,3.9106,3.9099,3.9154,3.9147,3.9348,3.9369,3.9191,3.9193,3.9194,0,3.9041,3.9083,3.9072,3.9089,3.9089,3.9118,3.9131,3.9094,3.911,3.9113,3.9144,3.9168,3.9184,3.9232,3.9214,3.9233,3.9213,3.9282,3.9215,3.9222,3.9207,3.9203,3.9204,3.9294,3.9296,3.9298,3.9299,0,3.9215,3.9198,3.9219,3.9234,3.9251,3.9262,3.927,3.9287,3.9246,3.9267,3.9294,3.9307,3.9332,3.9355,3.9368,3.9365,3.9324,3.9321,3.9333,3.9341,3.9346,3.9338,3.9137,3.9316,3.9314,3.9313,3.9312,3.9311,3.9343,3.9375,3.937,3.9394,3.9395,3.9402,3.9429,3.9413,3.9435,3.9452,3.9428,3.9461,3.9458,3.9472,3.9472,3.9496,3.9467,3.9487,3.9491,3.9495,3.95,3.9346,3.9499,3.9499,3.9498,3.9498,3.9498,0,3.9509,3.9502,3.9524,3.9533,3.9551,3.9512,3.9517,3.9534,3.9562,3.9563,3.9579,3.9608,3.9629,3.9612,3.9629,3.965,3.9632,3.9656,3.9651,3.965,3.9529,3.9513,3.967,3.967,3.967,3.967,3.967,3.967,3.9597,3.9647,3.963,3.9679,3.9671,3.9701,3.9706,3.9711,3.971,3.9744,3.976,3.9749,3.9741,3.9756,3.9773,3.9767,3.9773,3.9802,3.979,3.9676,3.9659,3.9643,3.9628,3.9805,3.9806,3.9908,3.9909,3.9909]},{"header":{"parameterUnit":"m.s-1","parameterCategory":1,"la1":30.2991,"la2":30.254,"lo1":-89.0895,"lo2":-89.0444,"dy":0.0017,"dx":0.0017,"nx":28,"ny":28,"refTime":"2023-10-08T09:00:00:Z","depth":0,"parameterNumber":3,"parameterNumberName":"V-component_of_WINDS"},"data":[0,0,0,0,0,0,0,0,0,0,0,0,0,0,0,0,0,0,0,0,0,0,0,0,0,0,0,0,0,0,0,0,0,0,0,0,0,0,0,0,0,0,0,0,0,0,0,0,0,0,0,0,0,0,0,0,0,0,3.0741,3.0741,0,3.0798,3.0798,3.0799,3.0778,3.0776,3.0775,3.0774,3.083,3.0833,3.0835,0,0,0,0,0,0,0,0,0,0,0,0,0,3.0609,3.0612,3.0741,3.0741,3.0742,3.0797,3.0798,3.0799,3.0778,3.0776,3.0775,3.0773,3.0829,3.0832,3.0836,0,0,0,0,0,0,0,0,0,0,0,0,0,3.0666,3.0613,3.074,3.0738,3.0739,3.0797,3.0798,3.0799,3.0778,3.0776,3.0774,3.0773,3.0828,3.0832,3.0836,3.09,0,0,3.0849,3.085,0,0,0,0,0,0,0,0,3.0663,3.0671,3.0738,3.0738,3.0739,3.0779,3.0773,3.0833,3.0779,3.0763,3.0774,3.0772,3.0814,3.0819,3.0834,3.0902,3.0905,3.0849,3.0851,3.0853,3.0854,0,0,0,0,0,0,0,3.0659,3.0668,3.0763,3.0739,3.074,3.0733,3.0739,3.0784,3.0799,3.0764,3.0763,3.077,3.0814,3.0831,3.0836,3.0906,3.0849,3.0852,3.0855,3.0856,3.1025,3.1027,0,0,0,0,0,0,3.0655,3.0665,3.0761,3.0765,3.0696,3.0737,3.0744,3.0768,3.0798,3.0801,3.0772,3.0769,3.0825,3.0831,3.0837,3.0911,3.0853,3.0857,3.0859,3.1023,3.1025,3.1027,0,0,0,0,0,0,3.0653,3.0664,3.0759,3.0715,3.0726,3.0741,3.0769,3.077,3.0786,3.0804,3.0806,3.0786,3.0823,3.0832,3.0884,3.0913,3.0859,3.0862,3.102,3.1023,3.1026,3.1061,0,0,0,0,0,0,3.0649,3.0663,3.0689,3.0715,3.0729,3.0806,3.0771,3.0772,3.0793,3.079,3.0818,3.082,3.0822,3.0878,3.0888,3.0917,3.0865,3.1018,3.1022,3.1025,3.1057,3.1064,3.1071,0,0,0,0,0,3.0644,3.0697,3.069,3.0702,3.0761,3.0807,3.0815,3.0817,3.0796,3.0821,3.0831,3.0819,3.0908,3.0883,3.0894,3.0926,3.1016,3.102,3.1025,3.1054,3.1063,3.1071,0,0,0,0,0,0,3.0673,3.07,3.0693,3.0756,3.078,3.0804,3.0835,3.0827,3.0857,3.0852,3.0853,3.0859,3.0912,3.0924,3.0896,3.0987,3.0959,3.0966,3.0977,3.0986,3.0993,3.0988,3.0869,0,0,0,0,0,3.0687,3.0723,3.0745,3.0798,3.081,3.0821,3.0841,3.084,3.0864,3.0874,3.0889,3.0912,3.0944,3.0966,3.0998,3.1059,3.1063,3.1086,3.1093,3.1098,3.1104,3.1134,3.1143,3.1042,3.1042,3.1042,0,0,3.0715,3.0735,3.0758,3.0804,3.0822,3.0858,3.0829,3.0869,3.0895,3.088,3.0929,3.0941,3.0966,3.1022,3.1048,3.1034,3.1132,3.1104,3.1109,3.1111,3.1139,3.1149,3.1157,3.1045,3.1045,3.1044,0,0,3.0785,3.0805,3.085,3.0868,3.0895,3.0902,3.0912,3.0937,3.0944,3.0994,3.0982,3.1013,3.107,3.1087,3.1104,3.1177,3.1166,3.1188,3.1224,3.1253,3.1261,3.1267,3.1291,3.1299,3.1193,3.1193,3.1194,0,3.0817,3.0872,3.0874,3.0914,3.0933,3.0921,3.0964,3.0982,3.1018,3.1031,3.1015,3.1085,3.1101,3.116,3.1177,3.1192,3.1202,3.1184,3.126,3.1267,3.1273,3.1295,3.1304,3.1196,3.1195,3.1195,3.1195,0,3.0908,3.0945,3.0978,3.1013,3.1036,3.1078,3.1084,3.1107,3.1104,3.1111,3.116,3.1179,3.1212,3.1227,3.1225,3.1284,3.1274,3.1259,3.123,3.1285,3.1305,3.1314,3.1199,3.1198,3.1197,3.1197,0,0,3.0998,3.1031,3.1043,3.1057,3.1085,3.1114,3.1154,3.1187,3.1205,3.123,3.1261,3.1309,3.1295,3.1313,3.1312,3.1338,3.1391,3.132,3.132,3.133,3.1454,3.1463,3.1473,3.1385,3.1386,3.1388,3.1451,0,3.1067,3.1138,3.114,3.1204,3.1237,3.1225,3.1259,3.1279,3.1286,3.1314,3.1322,3.1355,3.1335,3.1345,3.1371,3.138,3.1416,3.1375,3.1412,3.1413,3.1403,3.1485,3.1495,3.1554,3.1459,3.1461,3.1462,0,3.1159,3.1185,3.1253,3.1273,3.1287,3.1318,3.1346,3.1374,3.1396,3.1399,3.1418,3.1413,3.1452,3.1423,3.1474,3.1447,3.1461,3.1468,3.147,3.1472,3.1439,3.1486,3.1573,3.1581,3.1475,3.1474,3.1473,0,3.1214,3.1267,3.1313,3.1326,3.1352,3.1373,3.1385,3.1404,3.1423,3.1448,3.1459,3.1488,3.1503,3.1525,3.1527,3.1506,3.1577,3.1549,3.1579,3.1579,3.1593,3.1592,3.1681,3.1607,3.1607,3.1607,3.1606,0,3.129,3.1331,3.1337,3.1366,3.141,3.1411,3.1454,3.1464,3.1481,3.1509,3.1501,3.1528,3.1529,3.1556,3.1558,3.1598,3.1606,3.1608,3.1607,3.1607,3.1607,3.1616,3.1611,3.1609,3.1608,3.1608,3.1608,0,3.1359,3.1365,3.1414,3.1434,3.144,3.1471,3.1488,3.1513,3.1519,3.1555,3.1564,3.1573,3.1603,3.1608,3.1644,3.1645,3.1692,3.1689,3.1685,3.1684,3.1712,3.1708,3.1809,3.182,3.174,3.1741,3.1742,0,3.1406,3.1437,3.1459,3.1478,3.149,3.1521,3.1539,3.154,3.1559,3.1584,3.1606,3.1636,3.166,3.1709,3.1718,3.1745,3.174,3.1774,3.1744,3.1742,3.1737,3.1735,3.1736,3.1779,3.178,3.178,3.1781,0,3.1488,3.1489,3.1516,3.1544,3.1566,3.1588,3.1608,3.1623,3.1627,3.1648,3.1679,3.1698,3.1734,3.1762,3.1788,3.1799,3.1789,3.179,3.1798,3.1797,3.1792,3.1792,3.1698,3.1788,3.1787,3.1786,3.1786,3.1786,3.1545,3.1571,3.159,3.162,3.1635,3.1653,3.1678,3.1686,3.1712,3.1742,3.1741,3.1774,3.1792,3.1826,3.1838,3.1863,3.1852,3.1864,3.1866,3.1868,3.187,3.179,3.1868,3.1868,3.1867,3.1867,3.1867,0,3.1624,3.1636,3.1663,3.1691,3.1714,3.1704,3.1725,3.1744,3.1774,3.1791,3.1814,3.1848,3.1876,3.1886,3.1912,3.193,3.1926,3.1937,3.1934,3.1936,3.188,3.1869,3.1939,3.1939,3.1939,3.1939,3.1939,3.1939,3.1668,3.1709,3.1712,3.176,3.1771,3.1804,3.1816,3.1832,3.1846,3.1885,3.1907,3.1914,3.1928,3.1954,3.1978,3.198,3.1989,3.2001,3.2001,3.1948,3.194,3.1933,3.1923,3.2003,3.2003,3.2055,3.2055,3.2056]}]]